STARLINK-32455, 61632

Orbit data source: Space-Track

STARLINK-32455, 61632 is a payload satellite owned by SpaceX/Seattle (US) in LEO that was launched on Wed, 23 Oct 2024 UTC via an FALCON 9 launch vehicle from the Air Force Eastern Test Range (AFETR). Payload-class satellites include a variety of spacecraft equipped with specific instruments for various scientific and technological missions. These include communications satellites like Starlink; space stations such as the ISS; scientific satellites like the Hubble; Earth observation satellites from companies like Planet Labs, Umbra, and HawkEye 360; GPS; miniature CubeSats for education and research; and military/defense satellites.

Loading next visibility...
Identifier
61632, 2024-191M
Orbit
LEO
Country
Flag of USUS
Related business
Manufacturer
SpaceX/Seattle
Mission
Operational Commercial Communications
Bus & Motor
STARLINK V2M, Unknown motor
Mass
730 kg wet, ~700 kg dry
Launch date (UTC)
2024-10-23 (2 years ago)
Launch vehicle
FALCON 9
Launch site
Air Force Eastern Test Range (AFETR)
Object type
Payload
Rocket body
Debris
Shape & HBR
Box + 2 Pan, 17.7 m
Radar Cross Section
33.884 m², Large (>1 m²)

Expand to show TLE details & history
Last TLE update: 13 hours ago

TLE from 13 hours ago
0 STARLINK-32455
1 61632U 24191M   26207.11689630  .00002264  00000-0  91830-4 0  9995
2 61632  43.0010  96.4966 0001007 269.5533  90.5204 15.27556484 98665
Epoch: 2026-07-26T02:48Z
TLE epoch observation values (Epoch: 2026-07-26T02:48:19.840Z)
Latitude
0.00004°
Longitude
110.59454°
Altitude
482.901 km
Speed
7.626 km/s
True Right ascension
06h 25m 59s
True Declination
0° 00' 00"
Sunlit
Object was in daylight at epoch
Visualization orbit readout
Latitude
Unknown
Longitude
Unknown
Altitude
Unknown
Speed
Unknown
Apparent Right ascension
Unknown
Apparent Declination
Unknown
Sunlit
N/A
Visualization observer readout
Local Sidereal Time
05:28:51
Azimuth
Unknown
Elevation
Unknown
Doppler factor
Unknown
Orbital elements
Apogee altitude
485.756 km
Perigee altitude
484.373 km
Semi-major axis
6,863.201 km
Eccentricity
0.0001
Inclination
43.001°
RAAN
96.4966°
Arg. of periapsis
269.5533°
True anomaly
90.53194°
Mean anomaly
90.5204°
Eccentric anomaly
90.52617°
Mean motion
3.81727 °/min
Orbital period
94.31 mins
BSTAR
0.00009183
Loading maneuver chart data...
Computing Atmospheric mass density...
Loading historical data...
Loading historical data...
Loading historical data...
Loading historical data...
Loading historical data...
Loading historical data...
Loading historical data...

Documentation

Showing up to 5 results
|